DW1231 Weather Reports


Display with metric or nautical units.
time (UTC)temp
F
wind
direction
speed
MPH
gust
MPH
rain 1hr
in
rain 24hr
in
rain mn
in
humidity
%
barometer
mb
20191015021820 67 112 1.0 4.0 0.00 0.03 0.03 95 1016.1
20191015020821 66 0.0 0.0 0.01 0.03 0.03 95 1015.9
20191015015822 66 157 8.0 12.0 0.01 0.03 0.03 94 1015.8
20191015014821 66 157 8.0 12.0 0.02 0.03 0.03 94 1015.7
20191015013821 67 157 10.0 14.0 0.02 0.03 0.03 94 1015.8
20191015012820 67 135 2.0 8.0 0.02 0.03 0.03 94 1015.8
20191015011820 67 157 7.0 14.0 0.02 0.03 0.03 94 1015.8
20191015010820 67 157 7.0 13.0 0.01 0.02 0.02 93 1015.5
20191015005821 67 135 6.0 13.0 0.02 0.02 0.02 93 1015.5
20191015004820 67 157 12.0 16.0 0.01 0.01 0.01 93 1015.3
20191015003820 67 135 12.0 17.0 0.01 0.01 0.01 92 1015.1
20191015002820 67 135 3.0 8.0 0.01 0.01 0.01 92 1015.3
20191015001820 67 135 3.0 6.0 0.01 0.01 0.01 91 1015.2
20191015000820 67 135 6.0 9.0 0.01 0.01 0.01 90 1015.0
20191014235820 67 0.0 0.0 0.00 0.00 0.00 89 1015.2
20191014234821 68 0.0 0.0 0.00 0.00 0.00 88 1015.3
20191014233820 68 112 2.0 7.0 0.00 0.00 0.00 87 1015.2
20191014232821 68 135 1.0 10.0 0.00 0.00 0.00 85 1014.9
20191014231820 69 135 5.0 10.0 0.00 0.00 0.00 84 1014.9
20191014230820 69 135 11.0 16.0 0.00 0.00 0.00 83 1015.0
20191014225821 69 157 1.0 3.0 0.00 0.00 0.00 83 1015.0
20191014224820 70 135 9.0 15.0 0.00 0.00 0.00 82 1014.9
20191014223820 70 135 2.0 9.0 0.00 0.00 0.00 82 1015.1
20191014222820 71 135 12.0 18.0 0.00 0.00 0.00 81 1015.1
20191014221819 71 135 12.0 16.0 0.00 0.00 0.00 80 1014.9
20191014220821 71 135 10.0 15.0 0.00 0.00 0.00 82 1015.0
20191014215821 71 135 12.0 15.0 0.00 0.00 0.00 81 1014.8
20191014214821 72 135 3.0 11.0 0.00 0.00 0.00 80 1015.2
20191014213820 73 135 8.0 12.0 0.00 0.00 0.00 77 1015.1
20191014212820 73 135 13.0 16.0 0.00 0.00 0.00 76 1015.2
20191014211820 74 157 6.0 11.0 0.00 0.00 0.00 76 1015.3
20191014210822 73 157 4.0 7.0 0.00 0.00 0.00 77 1015.5
20191014205820 73 180 2.0 10.0 0.00 0.00 0.00 76 1015.5
20191014204821 74 135 12.0 16.0 0.00 0.00 0.00 75 1015.6
20191014203819 74 135 5.0 9.0 0.00 0.00 0.00 75 1015.3
20191014202819 73 157 6.0 8.0 0.00 0.00 0.00 75 1015.5
20191014201819 74 135 7.0 10.0 0.00 0.00 0.00 74 1015.7
20191014200821 74 135 10.0 13.0 0.00 0.00 0.00 74 1015.5
20191014195821 74 180 2.0 8.0 0.00 0.00 0.00 74 1015.8
20191014194821 74 135 8.0 12.0 0.00 0.00 0.00 73 1015.6
20191014193821 74 135 5.0 11.0 0.00 0.00 0.00 72 1015.7
20191014192820 75 157 5.0 8.0 0.00 0.00 0.00 72 1015.8
20191014191820 75 135 8.0 12.0 0.00 0.00 0.00 71 1015.9
20191014190821 74 157 3.0 8.0 0.00 0.00 0.00 72 1016.1
20191014185821 74 135 6.0 8.0 0.00 0.00 0.00 72 1016.3
20191014184821 74 135 10.0 13.0 0.00 0.00 0.00 71 1016.3
20191014183820 74 157 6.0 10.0 0.00 0.00 0.00 72 1016.6
20191014182821 74 135 5.0 9.0 0.00 0.00 0.00 71 1016.7
20191014181820 74 135 6.0 12.0 0.00 0.00 0.00 71 1017.1
20191014180820 74 135 10.0 14.0 0.00 0.00 0.00 69 1017.1
20191014175820 74 157 5.0 7.0 0.00 0.00 0.00 70 1017.2
20191014174819 73 157 7.0 12.0 0.00 0.00 0.00 70 1017.5
20191014173821 72 157 4.0 11.0 0.00 0.00 0.00 72 1017.6
20191014172821 71 135 2.0 7.0 0.00 0.00 0.00 73 1017.4
20191014171821 70 135 5.0 10.0 0.00 0.00 0.00 72 1017.3
20191014170821 71 135 6.0 8.0 0.00 0.00 0.00 71 1017.6
20191014165821 70 157 2.0 7.0 0.00 0.00 0.00 72 1017.9
20191014164821 70 0.0 0.0 0.00 0.00 0.00 72 1018.0
20191014163820 69 0.0 0.0 0.00 0.00 0.00 71 1018.0
20191014162821 69 112 3.0 9.0 0.00 0.00 0.00 72 1018.1
20191014161821 68 135 8.0 12.0 0.00 0.00 0.00 74 1018.3
20191014160821 67 135 10.0 14.0 0.00 0.00 0.00 75 1018.0
20191014155819 66 135 8.0 9.0 0.00 0.00 0.00 76 1018.4
20191014154818 65 135 5.0 10.0 0.00 0.00 0.00 77 1018.4
20191014153821 65 135 5.0 11.0 0.00 0.00 0.00 77 1018.4
20191014152819 64 135 8.0 11.0 0.00 0.00 0.00 78 1018.3
20191014151821 63 135 1.0 4.0 0.00 0.00 0.00 80 1018.7
20191014150821 62 0.0 0.0 0.00 0.00 0.00 82 1018.8
20191014145821 62 0.0 0.0 0.00 0.00 0.00 83 1018.6
20191014144821 61 90 1.0 6.0 0.00 0.00 0.00 83 1018.3
20191014143821 61 0.0 0.0 0.00 0.00 0.00 84 1018.2
20191014142821 61 0.0 0.0 0.00 0.00 0.00 84 1018.1
20191014141821 61 0.0 0.0 0.00 0.00 0.00 84 1018.0
20191014140818 60 90 3.0 7.0 0.00 0.00 0.00 84 1018.1
20191014135819 60 0.0 0.0 0.00 0.00 0.00 84 1018.2
20191014134820 60 0.0 0.0 0.00 0.00 0.00 85 1017.6
20191014133821 59 112 2.0 3.0 0.00 0.00 0.00 86 1017.5
20191014132821 59 0.0 3.0 0.00 0.00 0.00 87 1017.1
20191014131821 58 112 4.0 7.0 0.00 0.00 0.00 87 1017.1
20191014130821 58 0.0 0.0 0.00 0.00 0.00 87 1017.7
20191014125821 58 0.0 0.0 0.00 0.00 0.00 86 1018.0
20191014124820 58 0.0 0.0 0.00 0.00 0.00 86 1017.6
20191014123820 58 0.0 0.0 0.00 0.00 0.00 85 1018.0
20191014122822 58 0.0 0.0 0.00 0.00 0.00 85 1017.5
20191014121822 59 0.0 0.0 0.00 0.00 0.00 84 1017.6
20191014120823 59 0.0 0.0 0.00 0.00 0.00 82 1017.7
20191014115820 59 0.0 0.0 0.00 0.00 0.00 82 1017.7
20191014114818 59 0.0 0.0 0.00 0.00 0.00 82 1017.7
20191014113819 59 135 2.0 4.0 0.00 0.00 0.00 82 1017.5
20191014112820 59 0.0 0.0 0.00 0.00 0.00 81 1017.8
20191014111819 59 0.0 1.0 0.00 0.00 0.00 81 1017.7
20191014110820 59 135 5.0 9.0 0.00 0.00 0.00 81 1017.5
20191014105819 59 157 1.0 7.0 0.00 0.00 0.00 81 1017.5
20191014104821 59 157 2.0 8.0 0.00 0.00 0.00 81 1017.3
20191014103821 59 135 1.0 4.0 0.00 0.00 0.00 81 1017.2
20191014102821 59 135 3.0 8.0 0.00 0.00 0.00 81 1017.2
20191014101820 59 135 2.0 10.0 0.00 0.00 0.00 81 1017.2
20191014100821 59 135 2.0 9.0 0.00 0.00 0.00 82 1017.3
20191014095821 59 135 6.0 9.0 0.00 0.00 0.00 82 1017.3
20191014094819 59 0.0 1.0 0.00 0.00 0.00 82 1017.3
20191014093820 59 0.0 0.0 0.00 0.00 0.00 82 1017.2
20191014092819 59 0.0 0.0 0.00 0.00 0.00 82 1017.2
20191014091819 59 0.0 0.0 0.00 0.00 0.00 82 1017.4
20191014090819 59 112 1.0 3.0 0.00 0.00 0.00 81 1017.5
20191014085819 59 0.0 0.0 0.00 0.00 0.00 79 1017.6
20191014084819 59 135 5.0 8.0 0.00 0.00 0.00 78 1017.5
20191014083820 59 135 1.0 3.0 0.00 0.00 0.00 78 1017.5
20191014082819 59 135 2.0 7.0 0.00 0.00 0.00 78 1017.5
20191014081819 59 135 9.0 12.0 0.00 0.00 0.00 79 1017.7
20191014080822 59 135 2.0 4.0 0.00 0.00 0.00 80 1017.7
20191014075821 59 135 2.0 5.0 0.00 0.00 0.00 80 1017.9
20191014074819 59 0.0 0.0 0.00 0.00 0.00 80 1017.7
20191014073819 59 135 3.0 5.0 0.00 0.00 0.00 80 1017.6
20191014072819 59 0.0 0.0 0.00 0.00 0.00 80 1017.5
20191014071819 59 0.0 0.0 0.00 0.00 0.00 78 1017.5
20191014070819 60 0.0 0.0 0.00 0.00 0.00 78 1017.7
20191014065819 60 0.0 0.0 0.00 0.00 0.00 77 1017.6
20191014064819 59 135 2.0 8.0 0.00 0.00 0.00 78 1017.7
20191014063820 59 135 1.0 6.0 0.00 0.00 0.00 77 1017.8
20191014062819 60 112 4.0 8.0 0.00 0.00 0.00 77 1017.7
20191014061819 60 0.0 0.0 0.00 0.00 0.00 76 1017.8
20191014060821 60 135 2.0 4.0 0.00 0.00 0.00 75 1017.7
20191014055819 60 0.0 0.0 0.00 0.00 0.00 75 1017.6
20191014054819 60 0.0 10.0 0.00 0.00 0.00 74 1017.5
20191014053819 60 135 2.0 7.0 0.00 0.00 0.00 75 1017.6
20191014052819 60 0.0 4.0 0.00 0.00 0.00 75 1017.8
20191014051819 60 135 3.0 8.0 0.00 0.00 0.00 75 1017.7
20191014050819 60 157 3.0 5.0 0.00 0.00 0.00 74 1017.8
20191014045820 60 135 3.0 7.0 0.00 0.00 0.00 74 1017.9
20191014044821 60 0.0 0.0 0.00 0.00 0.00 73 1017.8
20191014043821 60 0.0 4.0 0.00 0.00 0.00 72 1017.7
20191014042821 60 0.0 0.0 0.00 0.00 0.00 72 1017.7
20191014041821 61 0.0 0.0 0.00 0.00 0.00 72 1017.8
20191014040821 61 0.0 0.0 0.00 0.00 0.00 70 1017.8
20191014035820 61 0.0 0.0 0.00 0.00 0.00 69 1017.9
20191014034820 61 0.0 0.0 0.00 0.00 0.00 68 1017.9
20191014033822 61 0.0 0.0 0.00 0.00 0.00 67 1017.9
20191014032820 62 0.0 8.0 0.00 0.00 0.00 67 1017.6
20191014031821 62 0.0 0.0 0.00 0.00 0.00 66 1017.7
20191014030821 62 135 3.0 5.0 0.00 0.00 0.00 66 1017.5
20191014025820 62 135 4.0 5.0 0.00 0.00 0.00 66 1017.3
20191014024820 62 135 4.0 6.0 0.00 0.00 0.00 66 1017.3
20191014023821 62 135 1.0 7.0 0.00 0.00 0.00 66 1017.3
20191014022820 62 157 3.0 6.0 0.00 0.00 0.00 65 1017.3